Miscellaneous Local Product
Issued by NWS Hastings, NE

Home | Current Version | Previous Version | Graphics & Text | Print | Product List | Glossary On
Versions: 1 2 3 4 5 6 7 8 9 10 11 12 13 14 15 16 17 18 19 20 21 22 23 24 25 26 27 28 29 30 31 32 33 34 35 36 37 38 39 40 41 42 43 44 45 46 47 48 49 50
000
AXUS43 KGID 231202
MISGRI

GID CWA HOURLY WEATHER ROUNDUP
NATIONAL WEATHER SERVICE HASTINGS NE
600 AM CST THU NOV 23 2017

NOTE: "FAIR" INDICATES FEW OR NO CLOUDS BELOW 12,000 FEET WITH NO
SIGNIFICANT WEATHER AND/OR OBSTRUCTIONS TO VISIBILITY.

...SOUTH CENTRAL NEBRASKA...

CITY           SKY/WX    TMP DP  RH WIND       PRES   REMARKS
GRAND ISLAND   CLEAR     36  34  92 W6        30.06R WCI  31
KEARNEY        NOT AVBL
HASTINGS       CLEAR     39  33  79 W3        30.07R
ORD            CLEAR     30  30 100 CALM      30.04S
YORK           CLEAR     39  36  87 NW7       30.04R WCI  34
AURORA         CLEAR     38  33  82 NW7       30.04S WCI  32
LEXINGTON      CLOUDY    38  33  84 W7        30.07F WCI  32
HOLDREGE       CLEAR     39  34  81 NW7       30.07S WCI  34
HEBRON         CLEAR     37  30  77 W3        30.05R

...NEBRASKA PANHANDLE...

CITY           SKY/WX    TMP DP  RH WIND       PRES   REMARKS
CHADRON        CLOUDY    35  33  92 SW5       30.07S WCI  31
ALLIANCE       CLOUDY    34  34 100 W8        30.10F WCI  27
SCOTTSBLUFF    CLOUDY    36  32  85 CALM      30.12F
SIDNEY         CLOUDY    43  37  79 W10       30.14F

...WESTERN AND NORTH CENTRAL NEBRASKA...

CITY           SKY/WX    TMP DP  RH WIND       PRES   REMARKS
VALENTINE      CLOUDY    39  35  86 W8        30.02S WCI  33
AINSWORTH      PTCLDY    38  35  90 CALM      30.03R
ONEILL         CLEAR     37  35  94 SW5       30.01F WCI  33
BROKEN BOW     CLOUDY    38  33  82 S5        30.05S WCI  34
IMPERIAL       CLOUDY    39  36  89 W7        30.12F WCI  34
NORTH PLATTE   CLEAR     31  30  96 NW5       30.09S WCI  26
MCCOOK         CLEAR     40  37  89 W10       30.10S WCI  33

...EASTERN NEBRASKA...

CITY           SKY/WX    TMP DP  RH WIND       PRES   REMARKS
NORFOLK        CLEAR     38  34  85 W6        30.01R WCI  33
SO SIOUX CITY  CLOUDY    32  28  85 NW10      30.00S WCI  24
TEKAMAH        CLOUDY    25  18  74 CALM      30.00R
COLUMBUS       CLEAR     28  26  92 SW3       30.04R
ALBION         CLEAR     34  32  91 CALM      30.03S
OMAHA EPPLEY   CLOUDY    30  22  72 SE3       30.00S
OFFUTT AFB     CLOUDY    27  21  76 W6        30.00S WCI  21
MILLARD        CLOUDY    30  24  79 CALM      30.01R
LINCOLN        CLEAR     33  26  75 CALM      30.04R
NEBRASKA CITY  CLEAR     40  30  67 W9        30.01R WCI  34
BEATRICE       CLEAR     32  24  71 CALM      30.04R
FALLS CITY     CLEAR     33  22  63 CALM      30.02R

...NORTHERN KANSAS...

CITY           SKY/WX    TMP DP  RH WIND       PRES   REMARKS
GOODLAND       CLOUDY    42  37  82 W9        30.16S
HILL CITY      CLEAR     40  36  86 W3        30.10R
NORTON         SUNNY     36  30  80 W3        30.08S
PHILLIPSBURG   CLEAR     39  34  81 W9        30.08S WCI  33
SMITH CENTER   CLEAR     30  25  80 W5        30.07R WCI  25
HAYS           CLEAR     41  35  79 NW9       30.08R
RUSSELL        CLEAR     34  31  88 W5        30.06R WCI  30
CONCORDIA      CLEAR     36  27  69 W8        30.04R WCI  30
SALINA         CLEAR     35  24  64 S3        30.06S
TOPEKA         CLEAR     33  23  66 CALM      30.07R



USA.gov is the U.S. government's official web portal to all federal, state and local government web resources and services.